Location: Newark
(33.6333°S, 78.8500°W)
Time: 03:16:30
(UTC+00:00)

A-11 Canister half - All Passes

Search period start: 20 September 2019 00:00
Search period end: 30 September 2019 00:00
Orbit: 1513 x 1686 km, 47.2° (Epoch: 18 September)

Date Brightness Start Highest point End Pass type
(mag) Time Alt. Az. Time Alt. Az. Time Alt. Az.
20 Sep - 00:06:48 10° NNE 00:11:41 15° ENE 00:16:36 10° E visible
20 Sep - 02:05:29 10° NW 02:15:17 64° NE 02:25:20 10° ESE visible
20 Sep - 04:10:50 10° W 04:20:41 54° SSW 04:30:41 10° SE visible
20 Sep - 06:18:30 10° WSW 06:27:50 38° S 06:37:05 10° ESE visible
20 Sep - 08:24:55 10° SW 08:34:55 55° SSE 08:44:38 10° ENE visible
20 Sep - 10:30:19 10° WSW 10:40:13 61° NW 10:49:45 10° NNE visible
20 Sep - 12:39:37 10° W 12:43:42 13° WNW 12:47:45 10° NNW daylight
20 Sep - 23:44:50 10° NE 23:48:50 13° ENE 23:52:53 10° E visible
21 Sep - 01:42:40 10° NNW 01:52:21 60° NE 02:02:20 10° ESE visible
21 Sep - 03:47:46 10° WNW 03:57:39 56° SSW 04:07:42 10° SE visible
21 Sep - 05:55:25 10° WSW 06:04:43 38° S 06:14:00 10° ESE visible
21 Sep - 08:01:56 10° SW 08:11:53 53° SSE 08:21:35 10° E visible
21 Sep - 10:07:18 10° WSW 10:17:18 65° NW 10:26:56 10° NE visible
21 Sep - 12:15:55 10° W 12:20:52 15° WNW 12:25:46 10° NNW daylight
21 Sep - 23:23:13 10° NE 23:26:00 11° ENE 23:28:49 10° ENE daylight
22 Sep - 01:19:52 10° NNW 01:29:27 56° NE 01:39:18 10° ESE visible
22 Sep - 03:24:43 10° WNW 03:34:37 58° SSW 03:44:43 10° SE visible
22 Sep - 05:32:20 10° WSW 05:41:38 38° S 05:50:56 10° ESE visible
22 Sep - 07:38:55 10° SW 07:48:51 51° SSE 07:58:32 10° E visible
22 Sep - 09:44:18 10° WSW 09:54:23 69° NW 10:04:06 10° NE visible
22 Sep - 11:52:24 10° W 11:58:02 17° WNW 12:03:36 10° NNW daylight
23 Sep - 00:57:05 10° NNW 01:06:32 53° NE 01:16:17 10° ESE visible
23 Sep - 03:01:41 10° WNW 03:11:36 60° SSW 03:21:44 10° SE visible
23 Sep - 05:09:13 10° WSW 05:18:32 38° S 05:27:51 10° ESE visible
23 Sep - 07:15:56 10° SW 07:25:48 49° SSE 07:35:28 10° E visible
23 Sep - 09:21:18 10° SW 09:31:27 73° NW 09:41:14 10° NE visible
23 Sep - 11:28:57 10° W 11:35:12 19° WNW 11:41:20 10° NNW daylight
24 Sep - 00:34:19 10° NNW 00:43:38 49° NE 00:53:14 10° ESE visible
24 Sep - 02:38:40 10° WNW 02:48:35 63° SSW 02:58:45 10° SE visible
24 Sep - 04:46:07 10° WSW 04:55:26 38° S 05:04:48 10° ESE visible
24 Sep - 06:52:55 10° SW 07:02:45 48° SSE 07:12:24 10° E visible
24 Sep - 08:58:18 10° SW 09:08:30 77° NW 09:18:23 10° NE visible
24 Sep - 11:05:36 10° W 11:12:21 21° WNW 11:18:58 10° NNW daylight
25 Sep - 00:11:35 10° NNW 00:20:45 46° NE 00:30:11 10° ESE visible
25 Sep - 02:15:39 10° WNW 02:25:34 66° SSW 02:35:47 10° SE visible
25 Sep - 04:23:01 10° WSW 04:32:21 39° S 04:41:44 10° ESE visible
25 Sep - 06:29:55 10° SW 06:39:42 46° SSE 06:49:19 10° E visible
25 Sep - 08:35:19 10° SW 08:45:34 81° NW 08:55:30 10° NE visible
25 Sep - 10:42:19 10° WSW 10:49:30 23° NW 10:56:33 10° N daylight
25 Sep - 23:48:52 10° NNW 23:57:51 43° NE 00:07:08 10° ESE visible
26 Sep - 01:52:38 10° WNW 02:02:33 69° SSW 02:12:48 10° SE visible
26 Sep - 03:59:55 10° WSW 04:09:15 39° S 04:18:40 10° ESE visible
26 Sep - 06:06:55 10° SW 06:16:37 45° SSE 06:26:14 10° E visible
26 Sep - 08:12:19 10° SW 08:22:36 86° NW 08:32:35 10° NE visible
26 Sep - 10:19:04 10° WSW 10:26:38 25° NW 10:34:05 10° N visible
26 Sep - 23:26:10 10° NNW 23:34:58 39° NE 23:44:03 10° ESE visible
27 Sep - 01:29:39 10° WNW 01:39:34 72° SSW 01:49:49 10° SE visible
27 Sep - 03:36:50 10° WSW 03:46:09 40° S 03:55:37 10° ESE visible
27 Sep - 05:43:53 10° SW 05:53:34 44° SSE 06:03:07 10° E visible
27 Sep - 07:49:20 10° SW 07:59:39 90° NNW 08:09:40 10° NE visible
27 Sep - 09:55:51 10° WSW 10:03:48 27° NW 10:11:33 10° N visible
27 Sep - 23:03:30 10° NNW 23:12:06 37° NE 23:20:57 10° ESE daylight
28 Sep - 01:06:40 10° WNW 01:16:35 75° SSW 01:26:51 10° SE visible
28 Sep - 03:13:43 10° WSW 03:23:04 40° S 03:32:33 10° ESE visible
28 Sep - 05:20:53 10° SW 05:30:29 43° SSE 05:40:02 10° E visible
28 Sep - 07:26:22 10° SW 07:36:41 86° SE 07:46:44 10° NE visible
28 Sep - 09:32:40 10° WSW 09:40:56 29° NW 09:49:00 10° N visible
28 Sep - 22:40:52 10° N 22:49:13 34° NE 22:57:50 10° ESE daylight
29 Sep - 00:43:44 10° WNW 00:53:36 79° SW 01:03:51 10° SE visible
29 Sep - 02:50:38 10° W 02:59:59 41° SSW 03:09:31 10° SE visible
29 Sep - 04:57:51 10° SW 05:07:24 42° SSE 05:16:55 10° E visible
29 Sep - 07:03:23 10° SW 07:13:42 83° SE 07:23:47 10° NE visible
29 Sep - 09:09:31 10° WSW 09:18:04 32° NW 09:26:24 10° N visible
29 Sep - 22:18:15 10° N 22:26:22 31° NE 22:34:43 10° ESE daylight
